Location: Bartlett
(35.2045°N, 89.8740°W)
Time: 17:49:37
(UTC+00:00)

Transit 4A - Pass Details

Date: 19 December 2025
Orbit: 867 x 974 km, 66.8° (Epoch: 14 January)

Event Time Altitude Azimuth Distance (km) Brightness Sun altitude
Rises 09:50:44 0° 321° (NW) 3,552 - -38.4°
Reaches altitude 10° 09:53:31 10° 311° (NW) 2,624 - -37.8°
Maximum altitude 09:58:42 30° 252° (WSW) 1,620 - -36.7°
Drops below altitude 10° 10:04:00 10° 194° (SSW) 2,671 - -35.7°
Exits shadow 10:06:35 - 184° (S) 3,527 10.9 -35.1°
Sets 10:06:52 0° 184° (S) 3,626 11.0 -35.1°
